Novato, CA

7:06 PM PST on December 08, 2019 (GMT -0800)
Gnoss

Weather History for KDVO - October, 2019

Change the Weather History Date:

Sunday, October 13, 2019

  Actual Average (WUND) Record (WUND)
Temperature  
Mean Temperature 57 °F -  
Max Temperature 77 °F - - (-1)
Min Temperature 37 °F - - (-1)
Degree Days  
Heating Degree Days 8    
Growing Degree Days 7 (Base 50)    
Moisture  
Dew Point 34 °F    
Average Humidity 51    
Maximum Humidity 87    
Minimum Humidity 17    
Precipitation  
Precipitation 0.00 in - - ()
Sea Level Pressure  
Sea Level Pressure 29.86 in    
Wind  
Wind Speed 1 mph ()    
Max Wind Speed 8 mph    
Max Gust Speed 17 mph    
Visibility 9.9 miles    
Events      
Averages and records for this station are not official NWS values.
T = Trace of Precipitation, MM = Missing Value Source: Averaged Metar Reports

Daily Weather History Graph

Daily Weather History Graph

Search for Another Location

Airport or City:

Astronomy

Oct. 13, 2019 Rise Set
Actual Time 7:16 AM PDT 6:35 PM PDT
Civil Twilight 6:50 AM PDT 7:01 PM PDT
Nautical Twilight 6:19 AM PDT 7:32 PM PDT
Astronomical Twilight 5:49 AM PDT 8:02 PM PDT
Moon 6:59 PM PDT (10/13) 6:57 AM PDT (10/13)
Length of Visible Light 12h 11m
Length of Day
11h 18m
Full, 100% of the Moon is Illuminated
Oct 13
Full
Oct 13
Full
Oct 21
Last Quarter
Oct 27
New
Nov 4
First Quarter

Hourly Weather History & Observations

Time (PDT) Temp. Windchill Dew Point Humidity Pressure Visibility Wind Dir Wind Speed Gust Speed Precip Events Conditions
12:15 AM 46.4 °F - 28.4 °F 50% 29.86 in 10.0 mi Calm Calm - N/A   Clear
12:35 AM 44.6 °F - 28.4 °F 53% 29.86 in 10.0 mi Calm Calm - N/A   Clear
12:55 AM 46.4 °F - 30.2 °F 53% 29.86 in 10.0 mi Calm Calm - N/A   Clear
1:15 AM 42.8 °F - 28.4 °F 57% 29.86 in 10.0 mi Calm Calm - N/A   Clear
1:35 AM 41.0 °F - 28.4 °F 61% 29.86 in 10.0 mi Calm Calm - N/A   Clear
1:55 AM 46.4 °F - 30.2 °F 53% 29.86 in 10.0 mi Calm Calm - N/A   Clear
2:15 AM 42.8 °F - 28.4 °F 57% 29.86 in 10.0 mi Calm Calm - N/A   Clear
2:35 AM 46.4 °F - 32.0 °F 57% 29.86 in 10.0 mi Calm Calm - N/A   Clear
2:55 AM 41.0 °F - 30.2 °F 65% 29.86 in 10.0 mi Calm Calm - N/A   Clear
3:15 AM 41.0 °F - 30.2 °F 65% 29.86 in 10.0 mi Calm Calm - N/A   Clear
3:35 AM 44.6 °F - 33.8 °F 66% 29.86 in 10.0 mi Calm Calm - N/A   Clear
3:55 AM 42.8 °F - 32.0 °F 66% 29.86 in 10.0 mi Calm Calm - N/A   Clear
4:15 AM 42.8 °F - 30.2 °F 61% 29.86 in 10.0 mi Calm Calm - N/A   Clear
4:35 AM 44.6 °F - 33.8 °F 66% 29.86 in 10.0 mi Calm Calm - N/A   Clear
4:55 AM 44.6 °F - 32.0 °F 61% 29.86 in 10.0 mi Calm Calm - N/A   Clear
5:15 AM 44.6 °F - 33.8 °F 66% 29.86 in 10.0 mi Calm Calm - N/A   Clear
6:15 AM 42.8 °F - 32.0 °F 66% 29.86 in 10.0 mi Calm Calm - N/A   Clear
6:35 AM 37.4 °F - 28.4 °F 70% 29.86 in 10.0 mi Calm Calm - N/A   Clear
6:55 AM 42.8 °F - 33.8 °F 70% 29.86 in 10.0 mi Calm Calm - N/A   Clear
7:15 AM 39.2 °F - 32.0 °F 75% 29.86 in 10.0 mi Calm Calm - N/A   Clear
7:35 AM 39.2 °F - 33.8 °F 81% 29.86 in 10.0 mi Calm Calm - N/A   Clear
7:55 AM 41.0 °F 38.0 °F 33.8 °F 76% 29.87 in 10.0 mi NNW 4.6 mph - N/A   Clear
8:15 AM 42.8 °F - 35.6 °F 76% 29.87 in 10.0 mi Calm Calm - N/A   Clear
8:35 AM 44.6 °F - 39.2 °F 81% 29.88 in 10.0 mi Calm Calm - N/A   Clear
8:55 AM 48.2 °F - 39.2 °F 71% 29.88 in 10.0 mi Calm Calm - N/A   Clear
9:15 AM 51.8 °F - 37.4 °F 58% 29.88 in 5.0 mi Calm Calm - N/A   Haze
9:35 AM 53.6 °F - 39.2 °F 58% 29.88 in 10.0 mi Calm Calm - N/A   Clear
9:55 AM 55.4 °F - 39.2 °F 54% 29.88 in 10.0 mi Calm Calm - N/A   Clear
10:15 AM 59.0 °F - 37.4 °F 45% 29.89 in 10.0 mi Calm Calm - N/A   Clear
10:35 AM 60.8 °F - 37.4 °F 42% 29.89 in 10.0 mi Calm Calm - N/A   Clear
10:55 AM 62.6 °F - 37.4 °F 39% 29.88 in 10.0 mi Calm Calm - N/A   Clear
11:15 AM 64.4 °F - 37.4 °F 37% 29.88 in 10.0 mi Calm Calm - N/A   Clear
11:35 AM 66.2 °F - 35.6 °F 32% 29.88 in 10.0 mi Calm Calm - N/A   Clear
11:55 AM 68.0 °F - 35.6 °F 30% 29.87 in 10.0 mi Variable 3.5 mph - N/A   Clear
12:15 PM 69.8 °F - 35.6 °F 28% 29.87 in 10.0 mi Variable 3.5 mph - N/A   Clear
12:35 PM 71.6 °F - 32.0 °F 23% 29.86 in 9.0 mi SSE 3.5 mph - N/A   Clear
12:55 PM 73.4 °F - 30.2 °F 20% 29.85 in 10.0 mi SE 5.8 mph - N/A   Clear
1:15 PM 73.4 °F - 32.0 °F 22% 29.84 in 10.0 mi ESE 5.8 mph - N/A   Clear
1:35 PM 73.4 °F - 35.6 °F 25% 29.83 in 10.0 mi SE 6.9 mph - N/A   Clear
1:55 PM 73.4 °F - 32.0 °F 22% 29.83 in 10.0 mi ESE 5.8 mph 11.5 mph N/A   Clear
2:15 PM 73.4 °F - 32.0 °F 22% 29.82 in 10.0 mi East 8.1 mph - N/A   Clear
2:35 PM 75.2 °F - 26.6 °F 17% 29.82 in 10.0 mi Variable 5.8 mph - N/A   Clear
2:55 PM 75.2 °F - 26.6 °F 17% 29.82 in 9.0 mi Variable 5.8 mph - N/A   Clear
3:15 PM 75.2 °F - 28.4 °F 18% 29.82 in 10.0 mi SE 8.1 mph - N/A   Clear
3:35 PM 75.2 °F - 28.4 °F 18% 29.82 in 10.0 mi Variable 5.8 mph - N/A   Clear
3:55 PM 77.0 °F - 30.2 °F 18% 29.82 in 10.0 mi Variable 6.9 mph - N/A   Clear
4:15 PM 75.2 °F - 32.0 °F 21% 29.82 in 10.0 mi ESE 5.8 mph - N/A   Clear
4:35 PM 75.2 °F - 32.0 °F 21% 29.82 in 10.0 mi SE 4.6 mph - N/A   Clear
4:55 PM 75.2 °F - 39.2 °F 27% 29.81 in 10.0 mi NE 8.1 mph - N/A   Clear
5:15 PM 71.6 °F - 39.2 °F 31% 29.82 in 10.0 mi Variable 5.8 mph - N/A   Clear
5:35 PM 69.8 °F - 37.4 °F 31% 29.82 in 10.0 mi Calm Calm 17.3 mph N/A   Clear
5:55 PM 66.2 °F - 37.4 °F 35% 29.83 in 10.0 mi NNE 8.1 mph - N/A   Clear
6:15 PM 64.4 °F - 35.6 °F 34% 29.83 in 10.0 mi ENE 6.9 mph - N/A   Clear
6:55 PM 53.6 °F - 35.6 °F 51% 29.84 in 10.0 mi North 8.1 mph - N/A   Clear
7:15 PM 55.4 °F - 35.6 °F 47% 29.84 in 10.0 mi NNW 4.6 mph - N/A   Clear
7:35 PM 53.6 °F - 35.6 °F 51% 29.85 in 10.0 mi NNW 4.6 mph - N/A   Clear
7:55 PM 51.8 °F - 35.6 °F 54% 29.85 in 10.0 mi NNW 3.5 mph - N/A   Clear
8:15 PM 50.0 °F - 37.4 °F 62% 29.85 in 10.0 mi NNW 5.8 mph - N/A   Clear
8:35 PM 51.8 °F - 37.4 °F 58% 29.86 in 10.0 mi Calm Calm - N/A   Clear
8:55 PM 50.0 °F - 41.0 °F 71% 29.86 in 10.0 mi Calm Calm - N/A   Clear
9:15 PM 48.2 °F - 41.0 °F 76% 29.86 in 10.0 mi Calm Calm - N/A   Partly Cloudy
9:35 PM 50.0 °F - 39.2 °F 66% 29.86 in 10.0 mi Calm Calm - N/A   Partly Cloudy
9:55 PM 48.2 °F - 37.4 °F 66% 29.87 in 10.0 mi Calm Calm - N/A   Partly Cloudy
10:15 PM 46.4 °F - 33.8 °F 62% 29.88 in 10.0 mi Calm Calm - N/A   Mostly Cloudy
10:35 PM 44.6 °F 42.2 °F 35.6 °F 71% 29.88 in 10.0 mi NW 4.6 mph - N/A   Mostly Cloudy
10:55 PM 44.6 °F 40.7 °F 37.4 °F 76% 29.89 in 10.0 mi NNW 6.9 mph - N/A   Scattered Clouds
11:15 PM 44.6 °F 43.1 °F 37.4 °F 76% 29.89 in 10.0 mi West 3.5 mph - N/A   Scattered Clouds
11:35 PM 48.2 °F - 42.8 °F 82% 29.89 in 10.0 mi Calm Calm - N/A   Scattered Clouds
11:55 PM 44.6 °F - 41.0 °F 87% 29.90 in 10.0 mi Calm Calm - N/A   Partly Cloudy